Welcome to our new website - Welkom op onze vernieuwde website - Bienvenue sur notre nouveau site web - Willkommen auf unserer neuen Website
Check our progress frequently. Prüfen Sie unsere Fortschritte regelmäßig. Consultez notre progression fréquemment. Komt u straks nog eens terug


Blik over 't Veldj richting Zuid-Westen Meer informatie Blik over 't Veldj richting Zuid-Westen


Onweer radar Meer informatie blitzortung!


Regen radar Meer informatie rain snow radar


Bezoek onze andere website:

Template documentation
and downloads

And another site


Select another period ( hide this area )

Eenheden Periode Custom range Directly to
Metrisch Engels Beide
Dagelijkse Wekelijkse Maandelijkse Jaarlijkse
use both date-selectors for a custom range
previous Dag
With this date

WeatherUnderground graphs for this period ( click here )


Dagelijkse Samenvatting Dinsdag 15 oktober 2019
Tijd Temp. ( °C ) Dew pt. ( °C ) Wind ( km/h ) van Windvlaag ( km/h ) Luchtdruk ( hPa ) Humid.( % ) Rainrate ( cm )
Hoog18,4 14,1 9,7 ZO ( 71/151 ) 11,3 1006,0 84 -
Gemiddeld17,1 13,6 2,3 Kalm #27/67 4,9 1005,5 80 -
Laag15,8 13,1 -   0,0 1005,0 76 -
Dagelijkse Tabular details for Dinsdag 15 oktober 2019
Tijd Temp. ( °C ) Dew pt. ( °C ) Wind ( km/h ) van Windvlaag ( km/h ) Luchtdruk ( hPa ) Humid.( % ) Rainrate ( cm )
00:04 18,4 14,1 3,2 OZO 4,8 1005,6 76 -
00:09 18,4 14,1 1,4 ZO 4,8 1005,6 76 -
00:14 18,3 14,0   Kalm 1,6 1005,6 76 -
00:19 18,3 14,0 3,2 ZZO 9,7 1005,3 76 -
00:24 18,2 13,9 3,2 Oosten 6,4 1005,6 76 -
00:29 18,2 13,9 4,7 OZO 4,8 1005,6 76 -
00:34 18,1 13,8   Kalm 3,2 1005,6 76 -
00:39 18,1 13,8 3,2 OZO 6,4 1005,6 76 -
00:44 18,0 13,9   Kalm 3,2 1005,6 77 -
00:49 17,9 13,8 4,7 OZO 6,4 1005,6 77 -
00:54 17,8 13,7 1,4 ZO 3,2 1005,6 77 -
00:59 17,8 13,9   Kalm 4,8 1005,6 78 -
01:04 17,7 13,8 1,4 ZO 6,4 1005,6 78 -
01:09 17,6 13,7 3,2 Oosten 6,4 1005,6 78 -
01:14 17,6 13,9 3,2 ZO 6,4 1005,6 79 -
01:19 17,5 13,8 1,4 ZO 4,8 1005,6 79 -
01:24 17,5 13,8   Kalm 4,8 1005,6 79 -
01:29 17,4 13,7 3,2 ZO 9,7 1005,6 79 -
01:34 17,4 13,7 9,7 ZO 9,7 1005,6 79 -
01:39 17,3 13,6 1,4 ZO 6,4 1005,6 79 -
01:44 17,2 13,7 3,2 ZO 8,0 1005,6 80 -
01:49 17,2 13,7   Kalm 4,8 1005,6 80 -
01:54 17,1 13,6 6,4 OZO 8,0 1005,6 80 -
01:59 17,1 13,6 3,2 ZO 4,8 1005,6 80 -
02:04 17,1 13,8 3,2 ZZO 9,7 1005,6 81 -
02:09 17,1 13,8 9,7 ZO 9,7 1005,6 81 -
02:14 17,1 13,8 4,7 ZZO 8,0 1005,6 81 -
02:19 17,1 13,8 3,2 ZO 8,0 1005,6 81 -
02:24 17,1 13,8 6,4 ZZO 11,3 1005,6 81 -
02:29 17,1 13,6 7,9 ZZO 8,0 1006,0 80 -
02:34 17,1 13,6 4,7 ZO 8,0 1006,0 80 -
02:39 17,0 13,5 1,4 Zuiden 6,4 1006,0 80 -
02:44 16,9 13,6 3,2 Zuiden 8,0 1006,0 81 -
02:49 16,9 13,6 1,4 Zuiden 4,8 1006,0 81 -
02:54 16,9 13,6 6,4 ZZO 8,0 1006,0 81 -
02:59 16,9 13,6 6,4 ZO 6,4 1006,0 81 -
03:04 16,9 13,6 1,4 OZO 6,4 1006,0 81 -
03:09 16,8 13,5 6,4 ZO 6,4 1006,0 81 -
03:14 16,7 13,4 4,7 ZO 4,8 1005,6 81 -
03:19 16,7 13,4 3,2 ZO 6,4 1005,6 81 -
03:24 16,7 13,6 4,7 ZZO 6,4 1005,6 82 -
03:29 16,7 13,6 3,2 ZZW 8,0 1006,0 82 -
03:34 16,8 13,7 1,4 ZZO 8,0 1005,6 82 -
03:39 16,9 13,6 1,4 ZZO 6,4 1005,6 81 -
03:44 17,0 13,7   Kalm 6,4 1005,6 81 -
03:49 17,1 13,8 1,4 Zuiden 9,7 1005,6 81 -
03:54 17,2 13,7 3,2 ZO 6,4 1005,6 80 -
03:59 17,3 13,8   Kalm 4,8 1005,3 80 -
04:06 17,3 13,8   Kalm 3,2 1005,3 80 -
04:11 17,2 13,7   Kalm 1,6 1005,3 80 -
04:16 17,2 13,7   Kalm 3,2 1005,0 80 -
04:21 17,1 13,6   Kalm   1005,0 80 -
04:26 16,9 13,4   Kalm   1005,3 80 -
04:31 16,8 13,5   Kalm   1005,0 81 -
04:36 16,7 13,4   Kalm   1005,0 81 -
04:41 16,6 13,5   Kalm   1005,0 82 -
04:46 16,5 13,4   Kalm   1005,0 82 -
04:51 16,4 13,3   Kalm 1,6 1005,0 82 -
04:56 16,3 13,4   Kalm   1005,3 83 -
05:01 16,2 13,3   Kalm   1005,0 83 -
05:06 16,2 13,3   Kalm 1,6 1005,0 83 -
05:11 16,2 13,3   Kalm   1005,0 83 -
05:16 16,1 13,2   Kalm   1005,0 83 -
05:21 16,0 13,3   Kalm   1005,0 84 -
05:26 15,9 13,2   Kalm   1005,0 84 -
05:31 15,9 13,2   Kalm   1005,0 84 -
05:36 15,8 13,1   Kalm   1005,0 84 -
Dagelijkse Samenvatting Dinsdag 15 oktober 2019
Tijd Temp. ( °C ) Dew pt. ( °C ) Wind ( km/h ) van Windvlaag ( km/h ) Luchtdruk ( hPa ) Humid.( % ) Rainrate ( cm )
Hoog18,4 14,1 9,7 ZO ( 71/151 ) 11,3 1006,0 84 -
Gemiddeld17,1 13,6 2,3 Kalm #27/67 4,9 1005,5 80 -
Laag15,8 13,1 -   0,0 1005,0 76 -
Dagelijkse Tabular details for Dinsdag 15 oktober 2019
Tijd Temp. ( °C ) Dew pt. ( °C ) Wind ( km/h ) van Windvlaag ( km/h ) Luchtdruk ( hPa ) Humid.( % ) Rainrate ( cm )
00:04 18,4 14,1 3,2 OZO 4,8 1005,6 76 -
00:09 18,4 14,1 1,4 ZO 4,8 1005,6 76 -
00:14 18,3 14,0   Kalm 1,6 1005,6 76 -
00:19 18,3 14,0 3,2 ZZO 9,7 1005,3 76 -
00:24 18,2 13,9 3,2 Oosten 6,4 1005,6 76 -
00:29 18,2 13,9 4,7 OZO 4,8 1005,6 76 -
00:34 18,1 13,8   Kalm 3,2 1005,6 76 -
00:39 18,1 13,8 3,2 OZO 6,4 1005,6 76 -
00:44 18,0 13,9   Kalm 3,2 1005,6 77 -
00:49 17,9 13,8 4,7 OZO 6,4 1005,6 77 -
00:54 17,8 13,7 1,4 ZO 3,2 1005,6 77 -
00:59 17,8 13,9   Kalm 4,8 1005,6 78 -
01:04 17,7 13,8 1,4 ZO 6,4 1005,6 78 -
01:09 17,6 13,7 3,2 Oosten 6,4 1005,6 78 -
01:14 17,6 13,9 3,2 ZO 6,4 1005,6 79 -
01:19 17,5 13,8 1,4 ZO 4,8 1005,6 79 -
01:24 17,5 13,8   Kalm 4,8 1005,6 79 -
01:29 17,4 13,7 3,2 ZO 9,7 1005,6 79 -
01:34 17,4 13,7 9,7 ZO 9,7 1005,6 79 -
01:39 17,3 13,6 1,4 ZO 6,4 1005,6 79 -
01:44 17,2 13,7 3,2 ZO 8,0 1005,6 80 -
01:49 17,2 13,7   Kalm 4,8 1005,6 80 -
01:54 17,1 13,6 6,4 OZO 8,0 1005,6 80 -
01:59 17,1 13,6 3,2 ZO 4,8 1005,6 80 -
02:04 17,1 13,8 3,2 ZZO 9,7 1005,6 81 -
02:09 17,1 13,8 9,7 ZO 9,7 1005,6 81 -
02:14 17,1 13,8 4,7 ZZO 8,0 1005,6 81 -
02:19 17,1 13,8 3,2 ZO 8,0 1005,6 81 -
02:24 17,1 13,8 6,4 ZZO 11,3 1005,6 81 -
02:29 17,1 13,6 7,9 ZZO 8,0 1006,0 80 -
02:34 17,1 13,6 4,7 ZO 8,0 1006,0 80 -
02:39 17,0 13,5 1,4 Zuiden 6,4 1006,0 80 -
02:44 16,9 13,6 3,2 Zuiden 8,0 1006,0 81 -
02:49 16,9 13,6 1,4 Zuiden 4,8 1006,0 81 -
02:54 16,9 13,6 6,4 ZZO 8,0 1006,0 81 -
02:59 16,9 13,6 6,4 ZO 6,4 1006,0 81 -
03:04 16,9 13,6 1,4 OZO 6,4 1006,0 81 -
03:09 16,8 13,5 6,4 ZO 6,4 1006,0 81 -
03:14 16,7 13,4 4,7 ZO 4,8 1005,6 81 -
03:19 16,7 13,4 3,2 ZO 6,4 1005,6 81 -
03:24 16,7 13,6 4,7 ZZO 6,4 1005,6 82 -
03:29 16,7 13,6 3,2 ZZW 8,0 1006,0 82 -
03:34 16,8 13,7 1,4 ZZO 8,0 1005,6 82 -
03:39 16,9 13,6 1,4 ZZO 6,4 1005,6 81 -
03:44 17,0 13,7   Kalm 6,4 1005,6 81 -
03:49 17,1 13,8 1,4 Zuiden 9,7 1005,6 81 -
03:54 17,2 13,7 3,2 ZO 6,4 1005,6 80 -
03:59 17,3 13,8   Kalm 4,8 1005,3 80 -
04:06 17,3 13,8   Kalm 3,2 1005,3 80 -
04:11 17,2 13,7   Kalm 1,6 1005,3 80 -
04:16 17,2 13,7   Kalm 3,2 1005,0 80 -
04:21 17,1 13,6   Kalm   1005,0 80 -
04:26 16,9 13,4   Kalm   1005,3 80 -
04:31 16,8 13,5   Kalm   1005,0 81 -
04:36 16,7 13,4   Kalm   1005,0 81 -
04:41 16,6 13,5   Kalm   1005,0 82 -
04:46 16,5 13,4   Kalm   1005,0 82 -
04:51 16,4 13,3   Kalm 1,6 1005,0 82 -
04:56 16,3 13,4   Kalm   1005,3 83 -
05:01 16,2 13,3   Kalm   1005,0 83 -
05:06 16,2 13,3   Kalm 1,6 1005,0 83 -
05:11 16,2 13,3   Kalm   1005,0 83 -
05:16 16,1 13,2   Kalm   1005,0 83 -
05:21 16,0 13,3   Kalm   1005,0 84 -
05:26 15,9 13,2   Kalm   1005,0 84 -
05:31 15,9 13,2   Kalm   1005,0 84 -
05:36 15,8 13,1   Kalm   1005,0 84 -

Download your copy of this data-set  here

Our weather-data as stored at Weather Underground. Script ontwikkeld door Jim McMurry. Aangepast voor de template door Leuven-Template.eu

U vindt ons ook hier:

UK Metoffice

Weather Underground

AWEKAS

Apparatuur in gebruik:

Weerstation
Davis Vantage Vue

Webleverancier
One.com

Davis Vantage Vue

One.com